sat.trackr.live / text

‹ back to catalog

LEGION 4

NORAD 60453 · 2024-146B

PAYLOAD ACTIVE UNKNOWN

§ Identity

Operator
Country
US
Launch date
2024-08-15
Launch site
AFETR
Launch vehicle
Mass (kg)
RCS (m²)

Purposes: earth_obs

External: N2YO · Heavens-Above · Gunter

§ Orbital elements

Epoch: 2026-05-25T03:15:55.448352Z

Period
95.00 min
Inclination
45.0010°
Eccentricity
0.0013077
Mean motion
15.15842838 rev/d
Perigee alt
509.4 km
Apogee alt
527.4 km
Semi-major
6,896.6 km
B*
2.1718e-4
RAAN
246.0760°
Arg perigee
185.9212°
Mean anomaly
174.1514°
Rev number
9,737

§ Raw data

LEGION 41 60453U 24146B   26145.13605843  .00003967  00000+0  21718-3 0  99992 60453  45.0010 246.0760 0013077 185.9212 174.1514 15.15842838 97375

JSON: /api/v1/satellites/60453 · /tle

For live sub-satellite position, see the globe view (requires WebGL).

§ Visibility from observer

Set your observer location to see the next 7 days of passes ≥ 10°. The values pass through the URL so the page stays shareable.

No JS? Fill the form by hand. The geolocation button needs JavaScript.